Regional Weather Roundup
Issued by NWS Charleston, SC

Current Version | Previous Version | Graphics & Text | Print | Product List | Glossary On
Versions: 1 2 3 4 5 6 7 8 9 10 11 12 13 14 15 16 17 18 19 20 21 22 23 24 25 26 27 28 29 30 31 32 33 34 35 36 37 38 39 40 41 42 43 44 45 46 47 48 49 50
000
ASUS42 KCHS 151627
RWRCHS

Regional Weather Roundup
National Weather Service Charleston SC
1100 AM EST FRI DEC 15 2017

NOTE: "fair" indicates few or no clouds below 12,000 feet with no
significant weather and/or obstructions to visibility.

Not all stations are quality controlled. Use data with caution,
especially dewpoint observations.

SCZ027-030-031-034>040-042>050-151700-
...Southeast South Carolina...

CITY           SKY/WX    TMP DP  RH WIND       PRES   REMARKS
N Charleston   PTSUNNY   60  40  47 W9        30.02F
Waterfront Prk   N/A     56  43  61 CALM      29.89R
Mount Pleasant FAIR      61  39  44 SW8       30.02F
Johns Island   FAIR      63  41  45 SW5       30.02F
Pinopolis        N/A     48  45  87 VRB3      29.95S
Moncks Corner  FAIR      55  37  50 W5        30.02F
Summerville    FAIR      55  37  50 SW6       30.03F
Beaufort MCAS  CLOUDY    60  43  53 W6        30.04S
Beaufort Arpt  FAIR      57  41  54 SW7       30.03F HAZE
Hilton Head Is MOSUNNY   57  43  58 W5        30.04F
Walterboro     PTSUNNY   55  41  58 W7        30.03F
Allendale      FAIR      52  39  62 VRB5      30.01F

...Southern Midlands and Pee Dee...

CITY           SKY/WX    TMP DP  RH WIND       PRES   REMARKS
Georgetown     FAIR      54  39  58 SW7       30.02F
Kingstree      FAIR      54  37  54 SW3       30.01S
Orangeburg     MOSUNNY   51  38  60 W7        30.02S
Barnwell         N/A     54  41  62 W7        30.02F
Aiken          FAIR      52  36  54 W9        30.05S
Manning        FAIR      54  37  54 MISG      30.01F
Columbia       PTSUNNY   52  39  61 W7        30.02R
Sumter         MOSUNNY   51  36  56 SW5       29.98F
Florence       MOSUNNY   51  38  60 SW7       30.01R
Myrtle Beach   PTSUNNY   54  40  59 W6        30.02F
N Myrtle Beach CLOUDY    55  40  56 SW8       30.00F

$$

GAZ063-065-086>088-099>101-113>116-118-119-134>141-150-151700-
...Southeast Georgia...

CITY           SKY/WX    TMP DP  RH WIND       PRES   REMARKS
Savannah Arpt  PTSUNNY   60  42  51 W8        30.05S
Hunter AAF     PTSUNNY   59  44  56 SW5       30.02S
Fort Stewart   PTSUNNY   60  41  50 W5        30.02F
Statesboro     PTSUNNY   57  38  49 W3        30.03F
Sylvania       MOSUNNY   57  43  60 SW3       30.04F
Claxton        FAIR      56  45  65 W5        30.05F

...CSRA, Central and far Southeast Georgia...

CITY           SKY/WX    TMP DP  RH WIND       PRES   REMARKS
Thomson        MOSUNNY   53  35  49 N7        30.07F
Augusta-Bush   CLOUDY    52  38  58 NW8       30.04R
Augusta-Daniel PTSUNNY   52  36  54 W8        30.04R
Swainsboro     FAIR      50  43  76 W6        30.07R
Vidalia        CLOUDY    55  43  62 W5        30.05F
Eastman        FAIR      53  34  48 NW5       30.11R
Hazlehurst     FAIR      56  35  43 W5        30.05S
Alma           CLOUDY    58  43  57 W6        30.06S
Waycross       CLOUDY    64  48  56 W8        30.06F
Jesup          FAIR      63  45  51 CALM      30.05F
Baxley         FAIR      55  43  62 W7        30.05S
Brunswick      CLOUDY    63  48  59 W7        30.07S
Saint Simons   SUNNY     61  48  62 SW7       30.05F

$$

SCZ027-028-034-036>038-045-046-048>050-GAZ119-141-151700-
...Lake and Supplemental Coastal Observations...

STATION/POSITION TIME  TEMP    WIND        PRES    WAVE   SWELL
                       AIR SEA DIR/SP/G            HT/PER HT/PER/DIR
                 (UTC) (F)     (DEG/KT/KT) (MB)    (FT/S) (FT/S/D)
Winyah Bay       1530   52     250/  3     1017.0S
Lake Murray      1550   46     220/  2/  5 1015.9R
ACE Basin NERRS  1545   56     250/  2     1017.0S
Fort Pulaski     1600   55 53  280/  4/  6 1017.5
Sapelo Island    1600   58     250/  7     1018.0

$$

ANZ835-935-AMZ111-154-330-350-352-354-370-450-454-472-151700-
...C-MAN and Buoy Observations...

STATION/POSITION TIME  TEMP    WIND        PRES    WAVE   SWELL
                       AIR SEA DIR/SP/G            HT/PER HT/PER/DIR
                 (UTC) (F)     (DEG/KT/KT) (MB)    (FT/S) (FT/S/D)
Buoy 41004       1610   64 73  230/ 16/ 19 1016.2
Buoy 41008       1550   56 58  210/ 10/ 12 1017.6F   1/ 4
Folly Beach CMAN 1600   54     220/  7/  8 1017.1F
Capers Nearshore 1608   52 54  250/  8/ 12 1016.4F


STATION/POSITION TIME  TEMP    WIND        PRES    WAVE   SWELL
                       AIR SEA DIR/SP/G            HT/PER HT/PER/DIR
                 (UTC) (F)     (DEG/KT/KT) (MB)    (FT/S) (FT/S/D)
5E St. Marys GA  1600      62                N/A     1
Frying Pan Buoy  1610   62 67  230/ 16/ 17 1015.4
Buoy 41025       1610   64 74  230/ 19/ 25 1014.1
Cape Lookout NC  1600          230/  6/  8 1015.2F
Buoy 41002       1550   71 74  210/ 14/ 19 1016.9F   5/ 7   3/250/ 7
Buoy 41010       NOT AVBL
St Augustine FL  1600   67 63  220/ 10/ 12 1018.5F


$$




USA.gov is the U.S. government's official web portal to all federal, state and local government web resources and services.